This demonstration page uses our WeatherBlox Daily Observations layout. Learn more.

Left ArrowRight Arrow

Hourly Observations for January 8, 2017

Temp ( °F °C ) Dew Point ( °F °C ) Humidity (%) Winds ( mph kmh ) Pressure ( in mb ) Visibility ( mi km ) Precip ( " mm )
12:53 am 00:53 Clear 8 -13.3 3 -16.1 80 80 SSE 12 19 30.62 1037 10 16 0.00 0.00
1:53 am 01:53 Clear 8 -13.3 3 -16.1 80 80 SSE 12 19 30.61 1037 10 16 0.00 0.00
2:53 am 02:53 Clear 10 -12.2 5 -15 80 80 SSE 10 17 30.61 1037 10 16 0.00 0.00
3:53 am 03:53 Clear 10 -12.2 5 -15 80 80 SSE 10 17 30.58 1036 10 16 0.00 0.00
4:53 am 04:53 Clear 13 -10.6 7 -13.9 77 77 SSE 15 24 30.49 1033 10 16 0.00 0.00
5:53 am 05:53 Mostly Cloudy 14 -10 8 -13.3 77 77 SSE 16 26 30.45 1031 10 16 0.00 0.00
6:53 am 06:53 Partly Cloudy 14 -10 9 -12.8 80 80 SSE 14 22 30.42 1030 10 16 0.00 0.00
7:53 am 07:53 Cloudy 15 -9.4 10 -12.2 80 80 SSE 15 24 30.42 1030 10 16 0.00 0.00
8:53 am 08:53 Mostly Cloudy 16 -8.9 11 -11.7 80 80 SSE 16 26 30.37 1029 9 14 0.00 0.00
9:53 am 09:53 Sunny 18 -7.8 11 -11.7 74 74 SSE 13 20 30.37 1028 10 16 0.00 0.00
10:53 am 10:53 Sunny 23 -5 14 -10 68 68 S 12 19 30.36 1028 10 16 0.00 0.00
11:53 am 11:53 Sunny 26 -3.3 15 -9.4 63 63 SSW 17 28 30.29 1026 10 16 0.00 0.00
12:53 pm 12:53 Sunny 28 -2.2 16 -8.9 60 60 SSW 17 28 30.24 1024 10 16 0.00 0.00
1:53 pm 13:53 Sunny 29 -1.7 18 -7.8 63 63 SW 10 17 30.22 1023 10 16 0.00 0.00
2:53 pm 14:53 Sunny 32 0 20 -6.7 61 61 SW 8 13 30.21 1023 10 16 0.00 0.00
3:53 pm 15:53 Sunny 32 0 22 -5.6 66 66 WSW 10 17 30.22 1024 10 16 0.00 0.00
4:53 pm 16:53 Sunny 30 -1.1 21 -6.1 69 69 W 10 17 30.24 1024 10 16 0.00 0.00
5:53 pm 17:53 Clear 27 -2.8 20 -6.7 75 75 W 8 13 30.26 1025 10 16 0.00 0.00
6:53 pm 18:53 Clear 26 -3.3 19 -7.2 75 75 WSW 6 9 30.27 1025 10 16 0.00 0.00
7:53 pm 19:53 Clear 26 -3.3 19 -7.2 75 75 WSW 7 11 30.29 1026 10 16 0.00 0.00
8:53 pm 20:53 Clear 23 -5 17 -8.3 78 78 W 9 15 30.32 1027 10 16 0.00 0.00
9:53 pm 21:53 Clear 20 -6.7 15 -9.4 81 81 W 8 13 30.34 1027 10 16 0.00 0.00
10:53 pm 22:53 Clear 19 -7.2 14 -10 81 81 W 3 6 30.32 1027 10 16 0.00 0.00
11:53 pm 23:53 Clear 20 -6.7 13 -10.6 74 74 NNW 5 7 30.31 1026 10 16 0.00 0.00

Powered by AerisWeather